Location: Prague
(50.0830°N, 14.4670°E)
Time: 12:13:29
(UTC+01:00)

AO-7 - Pass Details

Date: 15 December 2021
Orbit: 1440 x 1459 km, 101.9° (Epoch: 29 January)

Event Time Altitude Azimuth Distance (km) Brightness Sun altitude
Rises 04:59:57 0° 19° (NNE) 4,553 ? -26.7°
Reaches altitude 10° 05:02:43 10° 18° (NNE) 3,573 ? -26.2°
Maximum altitude 05:11:03 80° 294° (WNW) 1,476 ? -24.9°
Drops below altitude 10° 05:19:23 10° 209° (SSW) 3,569 ? -23.6°
Sets 05:22:09 0° 208° (SSW) 4,546 ? -23.1°
